When you browse on this site, cookies collect data to enhance your experience and personalize the content and advertising you see.
Visit our Privacy Policy to learn more. By continuing to use the site, you agree to this use of cookies and data.

Hourly Weather Lanovcy

Today, 2 July, Thursday

Time Temperature Precipitation Wind Pressure Humidity
00:00 +19°C° 0 mm 2 mps 735 mmHg 89%
01:00 +19°C° 0 mm 2 mps 735 mmHg 89%
02:00 +18°C° 0 mm 2 mps 735 mmHg 89%
03:00 +18°C° 0 mm 2 mps 735 mmHg 89%
04:00 +18°C° 0 mm 2 mps 735 mmHg 89%
05:00 +18°C° 0 mm 2 mps 735 mmHg 89%
06:00 +20°C° 0 mm 3 mps 735 mmHg 86%
07:00 +21°C° 0 mm 3 mps 735 mmHg 83%
08:00 +24°C° 0 mm 3 mps 735 mmHg 80%
09:00 +25°C° 0.1 mm 4 mps 735 mmHg 76%
10:00 +27°C° 0.1 mm 4 mps 735 mmHg 73%
11:00 +28°C° 0.1 mm 5 mps 735 mmHg 70%
12:00 +28°C° 0.1 mm 5 mps 735 mmHg 68%
13:00 +29°C° 0.1 mm 5 mps 735 mmHg 67%
14:00 +29°C° 0.1 mm 5 mps 735 mmHg 65%
15:00 +29°C° 0.3 mm 4 mps 735 mmHg 68%
16:00 +29°C° 0.3 mm 3 mps 735 mmHg 71%
17:00 +28°C° 0.3 mm 3 mps 734 mmHg 73%
18:00 +27°C° 0.6 mm 2 mps 734 mmHg 77%
19:00 +25°C° 0.6 mm 2 mps 734 mmHg 80%
20:00 +24°C° 0.6 mm 1 mps 734 mmHg 83%
21:00 +23°C° 0.4 mm 1 mps 734 mmHg 84%
22:00 +23°C° 0.4 mm 1 mps 734 mmHg 85%
23:00 +22°C° 0.4 mm 1 mps 734 mmHg 86%

Tomorrow, 3 July, Friday

Time Temperature Precipitation Wind Pressure Humidity
00:00 +21°C° 0.2 mm 1 mps 734 mmHg 88%
01:00 +20°C° 0.2 mm 2 mps 734 mmHg 89%
02:00 +19°C° 0.2 mm 2 mps 734 mmHg 90%
03:00 +19°C° 0.6 mm 2 mps 733 mmHg 91%
04:00 +19°C° 0.6 mm 2 mps 733 mmHg 92%
05:00 +19°C° 0.6 mm 1 mps 733 mmHg 92%
06:00 +19°C° 0.9 mm 2 mps 733 mmHg 91%
07:00 +20°C° 0.9 mm 2 mps 733 mmHg 90%
08:00 +21°C° 0.9 mm 2 mps 733 mmHg 88%
09:00 +23°C° 0.2 mm 2 mps 734 mmHg 86%
10:00 +24°C° 0.2 mm 3 mps 734 mmHg 84%
11:00 +25°C° 0.2 mm 3 mps 734 mmHg 82%
12:00 +26°C° 0.9 mm 3 mps 734 mmHg 79%
13:00 +27°C° 0.9 mm 3 mps 733 mmHg 77%
14:00 +28°C° 0.9 mm 3 mps 733 mmHg 75%
15:00 +26°C° 1.5 mm 3 mps 733 mmHg 79%
16:00 +25°C° 1.5 mm 3 mps 733 mmHg 84%
17:00 +24°C° 1.5 mm 3 mps 733 mmHg 88%
18:00 +23°C° 1 mm 2 mps 733 mmHg 90%
19:00 +21°C° 1 mm 2 mps 733 mmHg 91%
20:00 +21°C° 1 mm 2 mps 734 mmHg 93%
21:00 +20°C° 0.2 mm 2 mps 734 mmHg 93%
22:00 +20°C° 0.2 mm 2 mps 734 mmHg 94%
23:00 +20°C° 0.2 mm 2 mps 735 mmHg 94%

Day after tomorrow, 4 July, Saturday

Time Temperature Precipitation Wind Pressure Humidity
00:00 +20°C° 0 mm 2 mps 735 mmHg 95%
01:00 +19°C° 0 mm 3 mps 735 mmHg 95%
02:00 +19°C° 0 mm 3 mps 735 mmHg 96%
03:00 +19°C° 0 mm 3 mps 735 mmHg 96%
04:00 +19°C° 0 mm 4 mps 736 mmHg 97%
05:00 +18°C° 0 mm 4 mps 736 mmHg 97%
06:00 +19°C° 0 mm 4 mps 736 mmHg 96%
07:00 +19°C° 0 mm 4 mps 736 mmHg 94%
08:00 +20°C° 0 mm 4 mps 737 mmHg 93%
09:00 +20°C° 0 mm 4 mps 737 mmHg 91%
10:00 +21°C° 0 mm 4 mps 737 mmHg 89%
11:00 +21°C° 0 mm 3 mps 737 mmHg 87%
12:00 +22°C° 0.1 mm 3 mps 737 mmHg 83%
13:00 +24°C° 0.1 mm 3 mps 737 mmHg 79%
14:00 +25°C° 0.1 mm 3 mps 737 mmHg 75%
15:00 +25°C° 0.4 mm 3 mps 737 mmHg 77%
16:00 +25°C° 0.4 mm 3 mps 737 mmHg 78%
17:00 +25°C° 0.4 mm 3 mps 737 mmHg 79%
18:00 +24°C° 0.3 mm 3 mps 737 mmHg 83%
19:00 +22°C° 0.3 mm 3 mps 737 mmHg 88%
20:00 +21°C° 0.3 mm 2 mps 737 mmHg 92%
21:00 +20°C° 0.2 mm 2 mps 737 mmHg 92%
22:00 +19°C° 0.2 mm 2 mps 737 mmHg 93%
23:00 +19°C° 0.2 mm 2 mps 737 mmHg 94%

5 July, Sunday

Time Temperature Precipitation Wind Pressure Humidity
00:00 +18°C° 0 mm 2 mps 737 mmHg 94%
01:00 +18°C° 0 mm 2 mps 737 mmHg 95%
02:00 +18°C° 0 mm 2 mps 737 mmHg 95%
03:00 +18°C° 0 mm 2 mps 737 mmHg 95%
04:00 +17°C° 0 mm 2 mps 737 mmHg 95%
05:00 +17°C° 0 mm 2 mps 737 mmHg 94%
06:00 +18°C° 0 mm 2 mps 737 mmHg 93%
07:00 +19°C° 0 mm 2 mps 738 mmHg 91%
08:00 +19°C° 0 mm 2 mps 738 mmHg 89%
09:00 +20°C° 0 mm 2 mps 738 mmHg 85%
10:00 +23°C° 0 mm 2 mps 738 mmHg 81%
11:00 +24°C° 0 mm 2 mps 738 mmHg 76%
12:00 +24°C° 0.2 mm 2 mps 738 mmHg 74%
13:00 +25°C° 0.2 mm 3 mps 737 mmHg 72%
14:00 +26°C° 0.2 mm 3 mps 737 mmHg 70%
15:00 +25°C° 0.1 mm 3 mps 737 mmHg 71%
16:00 +25°C° 0.1 mm 3 mps 737 mmHg 71%
17:00 +25°C° 0.1 mm 2 mps 737 mmHg 71%
18:00 +24°C° 0 mm 2 mps 737 mmHg 75%
19:00 +23°C° 0 mm 1 mps 736 mmHg 79%
20:00 +22°C° 0 mm 1 mps 736 mmHg 83%
21:00 +21°C° 0 mm 1 mps 736 mmHg 84%
22:00 +20°C° 0 mm 1 mps 737 mmHg 85%
23:00 +17°C° 0 mm 0 mps 737 mmHg 87%

6 July, Monday

Time Temperature Precipitation Wind Pressure Humidity
00:00 +17°C° 0 mm 0 mps 736 mmHg 87%
01:00 +17°C° 0 mm 0 mps 736 mmHg 88%
02:00 +16°C° 0 mm 0 mps 736 mmHg 88%
03:00 +16°C° 0 mm 0 mps 736 mmHg 88%
04:00 +18°C° 0 mm 1 mps 736 mmHg 89%
05:00 +18°C° 0 mm 1 mps 736 mmHg 89%
06:00 +20°C° 0 mm 1 mps 736 mmHg 85%
07:00 +22°C° 0 mm 1 mps 736 mmHg 81%
08:00 +23°C° 0 mm 1 mps 737 mmHg 77%
09:00 +25°C° 0 mm 1 mps 737 mmHg 72%
10:00 +26°C° 0 mm 1 mps 737 mmHg 67%
11:00 +27°C° 0 mm 1 mps 737 mmHg 62%
12:00 +27°C° 0 mm 1 mps 736 mmHg 61%
13:00 +28°C° 0 mm 1 mps 736 mmHg 60%
14:00 +28°C° 0 mm 1 mps 736 mmHg 58%
15:00 +28°C° 0 mm 1 mps 735 mmHg 60%
16:00 +28°C° 0 mm 1 mps 735 mmHg 61%
17:00 +28°C° 0 mm 1 mps 735 mmHg 62%
18:00 +27°C° 0 mm 1 mps 735 mmHg 67%
19:00 +25°C° 0 mm 1 mps 735 mmHg 72%
20:00 +22°C° 0 mm 0 mps 734 mmHg 77%
21:00 +23°C° 0 mm 1 mps 734 mmHg 79%
22:00 +22°C° 0 mm 1 mps 734 mmHg 82%
23:00 +22°C° 0 mm 1 mps 734 mmHg 84%

7 July, Tuesday

Time Temperature Precipitation Wind Pressure Humidity
00:00 +21°C° 0 mm 1 mps 734 mmHg 86%
01:00 +21°C° 0 mm 1 mps 734 mmHg 87%
02:00 +21°C° 0 mm 1 mps 734 mmHg 89%
03:00 +21°C° 0.1 mm 1 mps 734 mmHg 89%
04:00 +21°C° 0.1 mm 1 mps 734 mmHg 90%
05:00 +18°C° 0.1 mm 0 mps 734 mmHg 90%
06:00 +20°C° 0.6 mm 0 mps 734 mmHg 87%
07:00 +23°C° 0.6 mm 1 mps 734 mmHg 84%
08:00 +25°C° 0.6 mm 1 mps 734 mmHg 81%
09:00 +26°C° 0.7 mm 1 mps 734 mmHg 76%
10:00 +27°C° 0.7 mm 1 mps 734 mmHg 71%
11:00 +28°C° 0.7 mm 1 mps 734 mmHg 66%
12:00 +28°C° 1.2 mm 2 mps 734 mmHg 69%
13:00 +28°C° 1.2 mm 4 mps 734 mmHg 71%
14:00 +27°C° 1.2 mm 5 mps 734 mmHg 74%
15:00 +26°C° 0.7 mm 6 mps 734 mmHg 77%
16:00 +26°C° 0.7 mm 6 mps 734 mmHg 79%
17:00 +24°C° 0.7 mm 6 mps 734 mmHg 81%
18:00 +23°C° 0.4 mm 6 mps 734 mmHg 83%
19:00 +22°C° 0.4 mm 6 mps 734 mmHg 84%
20:00 +20°C° 0.4 mm 6 mps 734 mmHg 85%
21:00 +20°C° 0.1 mm 6 mps 734 mmHg 84%
22:00 +19°C° 0.1 mm 6 mps 734 mmHg 82%
23:00 +19°C° 0.1 mm 6 mps 735 mmHg 80%
Show more